CW2157 Weather Reports


time (UTC)temp
F
wind
direction
speed
knots
gust
knots
rain 1hr
in
rain 24hr
in
rain mn
in
humidity
%
barometer
mb
20260904073706 74 269 1.7 2.6 0.00 0.32 0.32 94 1011.6
20260904072706 74 212 2.6 4.3 0.00 0.32 0.32 94 1011.6
20260904072206 74 200 2.6 4.3 0.01 0.32 0.32 94 1011.7
20260904071705 74 248 1.7 5.2 0.01 0.32 0.32 94 1011.8
20260904071206 74 242 2.6 5.2 0.01 0.32 0.32 94 1011.8
20260904070706 74 230 4.3 6.1 0.01 0.32 0.32 93 1011.7
20260904070206 74 241 2.6 7.0 0.01 0.32 0.32 93 1011.8
20260904065705 74 234 5.2 6.1 0.01 0.32 0.32 93 1011.9
20260904063705 74 215 7.0 8.7 0.04 0.32 0.32 93 1011.9
20260904063205 74 226 5.2 8.7 0.04 0.32 0.32 93 1011.7
20260904062205 74 205 6.1 10.4 0.04 0.31 0.31 93 1011.7
20260904060706 74 186 5.2 8.7 0.06 0.31 0.31 92 1011.4
20260904060206 74 189 2.6 6.1 0.07 0.31 0.31 92 1011.0
20260904055705 74 190 4.3 6.1 0.09 0.31 0.31 92 1010.9
20260904055205 74 170 4.3 5.2 0.11 0.30 0.30 92 1011.3
20260904054705 74 193 1.7 4.3 0.13 0.29 0.29 92 1011.5
20260904054205 74 186 4.3 7.8 0.19 0.28 0.28 92 1011.5
20260904053706 74 130 4.3 7.8 0.28 0.28 0.28 92 1011.3
20260904053205 74 121 4.3 7.0 0.28 0.28 0.28 92 1011.7
20260904052705 74 111 4.3 6.1 0.28 0.28 0.28 93 1012.0
20260904052205 74 126 4.3 5.2 0.27 0.27 0.27 92 1012.4
20260904051706 74 175 0.9 2.6 0.26 0.26 0.26 90 1012.9
20260904051206 74 266 0.0 0.9 0.26 0.26 0.26 90 1013.5
20260904050705 74 298 2.6 5.2 0.25 0.25 0.25 90 1013.8
20260904050205 74 288 4.3 10.4 0.24 0.24 0.24 90 1013.9
20260904045705 74 241 2.6 10.4 0.22 0.22 0.22 89 1014.1
20260904045205 75 227 7.8 17.4 0.19 0.19 0.19 88 1014.2
20260904044705 76 230 10.4 22.6 0.16 0.16 0.16 87 1014.4
20260904044206 77 207 11.3 20.0 0.09 0.09 0.09 85 1014.3
20260904043706 79 229 13.9 30.4 0.00 0.00 0.00 83 1014.0
20260904043206 80 254 5.2 17.4 0.00 0.00 0.00 92 1013.6
20260904042706 80 259 7.0 13.0 0.00 0.00 0.00 92 1012.4
20260904042205 80 234 8.7 13.0 0.00 0.00 0.00 92 1011.8
20260904041705 80 229 6.1 8.7 0.00 0.00 0.00 92 1011.7
20260904041205 80 237 5.2 8.7 0.00 0.00 0.00 92 1011.3
20260904040705 80 226 5.2 7.0 0.00 0.00 0.00 92 1011.2
20260904040205 80 199 1.7 2.6 0.00 0.00 0.00 93 1010.6
20260904035705 80 152 0.9 2.6 0.00 0.00 0.00 92 1010.4
20260904035205 80 216 0.9 2.6 0.00 0.00 0.00 91 1010.5
20260904034706 80 216 1.7 2.6 0.00 0.00 0.00 91 1010.9
20260904033705 80 216 0.9 1.7 0.00 0.00 0.00 91 1011.3
20260904033207 80 216 2.6 2.6 0.00 0.00 0.00 91 1011.4
20260904032705 80 216 1.7 2.6 0.00 0.00 0.00 91 1011.5
20260904032205 80 206 1.7 4.3 0.00 0.00 0.00 91 1011.5
20260904031705 80 218 2.6 4.3 0.00 0.00 0.00 91 1011.6
20260904031205 80 205 1.7 2.6 0.00 0.00 0.00 91 1011.6
20260904030706 80 169 0.9 2.6 0.00 0.00 0.00 91 1011.6
20260904030205 80 182 1.7 4.3 0.00 0.00 0.00 91 1011.7
20260904025705 80 206 2.6 5.2 0.00 0.00 0.00 91 1011.7
20260904024705 80 209 3.5 5.2 0.00 0.00 0.00 91 1011.8
20260904024205 81 216 2.6 5.2 0.00 0.00 0.00 91 1011.9
20260904023705 81 212 5.2 7.0 0.00 0.00 0.00 91 1011.9
20260904023205 81 213 4.3 6.1 0.00 0.00 0.00 91 1011.9
20260904022205 81 210 5.2 6.1 0.00 0.00 0.00 91 1012.0
20260904021205 81 219 5.2 7.0 0.00 0.00 0.00 90 1012.1
20260904020705 81 209 4.3 6.1 0.00 0.00 0.00 90 1012.0
20260904020205 81 207 3.5 4.3 0.00 0.00 0.00 91 1011.9
20260904015705 81 192 2.6 6.1 0.00 0.00 0.00 91 1011.7
20260904015205 81 189 4.3 6.1 0.00 0.00 0.00 91 1011.6
20260904014205 81 196 2.6 4.3 0.00 0.00 0.00 91 1011.7
20260904013705 81 176 1.7 2.6 0.00 0.00 0.00 91 1011.9
20260904013205 80 183 1.7 2.6 0.00 0.00 0.00 90 1011.9
20260904012705 80 157 1.7 2.6 0.00 0.00 0.00 89 1012.0
20260904012205 80 175 2.6 4.3 0.00 0.00 0.00 89 1012.1
20260904011705 80 196 4.3 6.1 0.00 0.00 0.00 89 1012.2
20260904011205 80 206 4.3 7.0 0.00 0.00 0.00 89 1012.3
20260904010705 81 203 5.2 7.8 0.00 0.00 0.00 89 1012.4
20260904010205 81 204 4.3 6.1 0.00 0.00 0.00 89 1012.4
20260904005706 81 205 4.3 5.2 0.00 0.00 0.00 88 1012.5
20260904005205 81 200 3.5 6.1 0.00 0.00 0.00 88 1012.6
20260904004705 81 194 4.3 6.1 0.00 0.00 0.00 88 1012.6
20260904003205 81 224 6.1 7.0 0.00 0.00 0.00 88 1012.6
20260904002705 81 224 6.1 7.0 0.00 0.00 0.00 88 1012.5
20260904002205 81 231 6.1 7.8 0.00 0.00 0.00 87 1012.5
20260904001705 81 225 6.1 7.8 0.00 0.00 0.00 87 1012.4
20260904001205 81 226 6.1 7.8 0.00 0.00 0.00 87 1012.2
20260904000705 82 231 6.1 7.8 0.00 0.00 0.00 87 1012.2
20260904000206 82 224 7.0 7.8 0.00 0.00 0.00 87 1012.0
20260903235706 82 220 6.1 7.8 0.00 0.00 0.00 86 1011.9
20260903235205 82 219 6.1 7.8 0.00 0.00 0.00 86 1011.9
20260903234205 82 207 5.2 7.0 0.00 0.00 0.00 85 1011.8
20260903233705 83 205 6.1 7.8 0.00 0.00 0.00 84 1011.7
20260903233205 83 192 4.3 7.0 0.00 0.00 0.00 84 1011.8
20260903232705 83 213 6.1 7.8 0.00 0.00 0.00 84 1011.8
20260903232205 83 209 5.2 6.1 0.00 0.00 0.00 83 1011.8
20260903231705 83 217 5.2 7.0 0.00 0.00 0.00 83 1011.9
20260903230205 84 203 5.2 7.0 0.00 0.00 0.00 81 1011.8
20260903225705 84 210 6.1 7.8 0.00 0.00 0.00 81 1011.8
20260903225206 85 212 7.0 7.8 0.00 0.00 0.00 81 1011.8
20260903224704 85 218 6.1 10.4 0.00 0.00 0.00 81 1011.8
20260903224205 85 208 6.1 7.8 0.00 0.00 0.00 80 1011.8
20260903223705 85 206 6.1 7.0 0.00 0.00 0.00 80 1011.7
20260903223205 85 217 5.2 8.7 0.00 0.00 0.00 80 1011.7
20260903222705 85 207 5.2 7.8 0.00 0.00 0.00 80 1011.6
20260903221705 86 220 6.1 7.8 0.00 0.00 0.00 79 1011.7
20260903221205 86 209 5.2 7.8 0.00 0.00 0.00 79 1011.6
20260903220206 86 212 6.1 8.7 0.00 0.00 0.00 79 1011.7
20260903215705 86 202 6.1 7.8 0.00 0.00 0.00 78 1011.6
20260903214705 87 203 7.0 10.4 0.00 0.00 0.00 76 1011.7
20260903214205 87 203 7.0 10.4 0.00 0.00 0.00 76 1011.7
20260903213705 87 211 5.2 8.7 0.00 0.00 0.00 74 1011.7
20260903213205 88 204 7.8 10.4 0.00 0.00 0.00 75 1011.8
20260903212705 88 210 7.8 11.3 0.00 0.00 0.00 75 1011.9
20260903212205 88 193 6.1 8.7 0.00 0.00 0.00 74 1011.9
20260903211706 89 208 5.2 7.0 0.00 0.00 0.00 73 1012.0
20260903211205 89 196 6.1 8.7 0.00 0.00 0.00 73 1012.0
20260903210705 89 189 5.2 7.8 0.00 0.00 0.00 73 1012.0
20260903210205 90 208 5.2 7.0 0.00 0.00 0.00 73 1012.1
20260903205705 90 194 4.3 8.7 0.00 0.00 0.00 73 1012.0
20260903204705 90 183 7.8 10.4 0.00 0.00 0.00 73 1012.0
20260903204205 90 198 7.0 11.3 0.00 0.00 0.00 74 1012.0
20260903203705 90 175 5.2 8.7 0.00 0.00 0.00 73 1012.0
20260903203206 90 191 5.2 7.8 0.00 0.00 0.00 73 1012.1
20260903202705 90 197 6.1 7.8 0.00 0.00 0.00 73 1012.2
20260903202205 90 223 6.1 7.8 0.00 0.00 0.00 72 1012.3
20260903201705 90 216 7.8 10.4 0.00 0.00 0.00 72 1012.3
20260903201205 90 216 7.0 10.4 0.00 0.00 0.00 72 1012.5
20260903200705 89 228 6.1 7.8 0.00 0.00 0.00 75 1012.6
20260903200205 89 217 5.2 7.0 0.00 0.00 0.00 76 1012.8
20260903195704 89 224 5.2 7.0 0.00 0.00 0.00 73 1012.9
20260903195205 89 224 5.2 7.0 0.00 0.00 0.00 73 1012.9
20260903194705 90 235 6.1 10.4 0.00 0.00 0.00 72 1012.9
20260903193705 90 217 7.8 10.4 0.00 0.00 0.00 75 1012.9
20260903193205 90 207 8.7 11.3 0.00 0.00 0.00 76 1012.8
20260903192705 90 198 6.1 11.3 0.00 0.00 0.00 74 1012.9
20260903192205 90 217 7.8 10.4 0.00 0.00 0.00 78 1013.0
20260903191705 89 222 8.7 11.3 0.00 0.00 0.00 74 1013.1
20260903191205 89 209 6.1 8.7 0.00 0.00 0.00 73 1013.1
20260903190705 89 231 4.3 6.1 0.00 0.00 0.00 74 1013.2
20260903190205 89 225 6.1 7.0 0.00 0.01 0.00 75 1013.2
20260903185205 88 189 5.2 10.4 0.00 0.01 0.00 79 1013.1
20260903184705 88 194 7.8 8.7 0.00 0.01 0.00 77 1013.1
20260903184205 87 212 7.0 8.7 0.00 0.01 0.00 78 1013.1
20260903183705 87 229 6.1 10.4 0.00 0.01 0.00 78 1013.2
20260903183205 87 212 6.1 10.4 0.00 0.01 0.00 78 1013.4
20260903182705 86 231 6.1 8.7 0.00 0.01 0.00 78 1013.3
20260903182205 86 230 5.2 7.0 0.00 0.01 0.00 79 1013.5
20260903181705 86 236 7.0 10.4 0.00 0.01 0.00 78 1013.6
20260903181205 85 224 6.1 12.2 0.00 0.02 0.00 77 1013.6
20260903180705 85 229 5.2 8.7 0.00 0.03 0.00 79 1013.6
20260903180205 85 237 7.0 10.4 0.00 0.07 0.00 80 1013.7
20260903175705 85 239 7.8 10.4 0.00 0.10 0.00 83 1013.6
20260903174705 84 230 7.0 10.4 0.00 0.10 0.00 83 1013.7
20260903173705 84 229 5.2 11.3 0.00 0.10 0.00 81 1013.9
20260903173205 84 244 4.3 7.8 0.00 0.10 0.00 81 1014.2
20260903172705 84 273 4.3 7.8 0.00 0.10 0.00 83 1014.5
20260903172205 83 241 5.2 7.8 0.00 0.10 0.00 84 1014.3
20260903171705 83 231 7.0 10.4 0.00 0.10 0.00 85 1014.1
20260903171205 83 205 7.8 8.7 0.00 0.10 0.00 84 1014.1
20260903170704 83 220 5.2 7.8 0.00 0.10 0.00 84 1014.3
20260903170205 83 234 5.2 7.8 0.00 0.10 0.00 85 1014.6
20260903165705 83 212 6.1 8.7 0.00 0.10 0.00 84 1014.6
20260903165205 83 210 4.3 7.8 0.00 0.10 0.00 83 1014.7
20260903164705 83 239 2.6 4.3 0.00 0.10 0.00 84 1015.0
20260903164205 83 240 2.6 6.1 0.00 0.10 0.00 82 1015.6
20260903163705 83 248 1.7 7.8 0.00 0.10 0.00 82 1015.8
20260903163206 83 251 2.6 7.8 0.00 0.10 0.00 82 1015.8
20260903162705 84 271 2.6 6.1 0.00 0.10 0.00 82 1015.8
20260903162205 84 237 7.0 11.3 0.00 0.10 0.00 82 1015.5
20260903161705 84 220 10.4 12.2 0.00 0.10 0.00 82 1015.4
20260903161205 84 223 8.7 12.2 0.00 0.10 0.00 81 1015.6
20260903160705 84 232 9.6 17.4 0.00 0.10 0.00 82 1015.6
20260903160204 84 222 11.3 14.8 0.00 0.10 0.00 81 1015.5
20260903155205 85 217 11.3 14.8 0.00 0.10 0.00 83 1015.3
20260903154705 85 223 9.6 13.9 0.00 0.10 0.00 80 1015.3
20260903154205 85 223 10.4 13.0 0.00 0.10 0.00 82 1015.3
20260903153705 85 221 11.3 13.0 0.00 0.10 0.00 80 1015.4
20260903153205 85 212 11.3 14.8 0.00 0.10 0.00 79 1015.3
20260903152705 85 216 11.3 14.8 0.00 0.10 0.00 83 1015.1
20260903152205 84 227 11.3 14.8 0.00 0.10 0.00 83 1015.2
20260903151705 84 190 8.7 13.0 0.00 0.10 0.00 85 1015.1
20260903151205 83 208 7.8 10.4 0.00 0.10 0.00 85 1015.0
20260903150705 82 207 7.8 10.4 0.00 0.10 0.00 86 1015.1
20260903150204 82 202 6.1 10.4 0.00 0.10 0.00 85 1015.0
20260903145705 82 203 7.8 10.4 0.00 0.10 0.00 85 1015.1
20260903145205 81 208 7.8 10.4 0.00 0.10 0.00 86 1015.1
20260903144705 81 195 5.2 10.4 0.00 0.10 0.00 87 1015.0
20260903144204 81 198 5.2 10.4 0.00 0.10 0.00 86 1015.0
20260903143705 81 201 7.8 8.7 0.00 0.10 0.00 86 1015.0
20260903142705 81 204 5.2 8.7 0.00 0.10 0.00 86 1014.7
20260903142205 81 209 6.1 10.4 0.00 0.10 0.00 84 1014.5
20260903141705 81 176 7.8 13.0 0.00 0.10 0.00 84 1014.2
20260903141205 81 164 8.7 12.2 0.00 0.10 0.00 85 1014.4
20260903140205 80 178 7.8 12.2 0.00 0.10 0.00 88 1014.4
20260903135705 80 165 3.5 7.8 0.00 0.10 0.00 90 1015.0
20260903135205 79 182 5.2 7.0 0.00 0.10 0.00 91 1015.1
20260903134705 78 155 4.3 7.0 0.00 0.10 0.00 93 1015.0
20260903133705 78 156 3.5 7.8 0.00 0.10 0.00 93 1015.2
20260903132206 77 173 5.2 10.4 0.00 0.10 0.00 93 1015.3
20260903131705 76 165 4.3 7.0 0.00 0.10 0.00 93 1015.6
20260903131205 76 173 4.3 7.0 0.00 0.10 0.00 93 1015.6
20260903130705 76 174 2.6 4.3 0.00 0.10 0.00 93 1015.9
20260903130205 76 145 0.9 2.6 0.00 0.10 0.00 93 1016.0
20260903125705 76 119 1.7 2.6 0.00 0.10 0.00 93 1016.1
20260903124705 75 142 1.7 2.6 0.00 0.10 0.00 93 1016.2
20260903124205 75 61 0.9 2.6 0.00 0.10 0.00 93 1016.4
20260903123705 75 57 0.9 2.6 0.00 0.10 0.00 93 1016.6
20260903122705 75 36 0.9 2.6 0.00 0.10 0.00 93 1016.5
20260903122205 75 69 1.7 2.6 0.00 0.10 0.00 93 1016.4
20260903121704 75 56 1.7 2.6 0.00 0.10 0.00 93 1016.2
20260903121204 75 85 1.7 2.6 0.00 0.10 0.00 93 1016.2
20260903120704 75 89 2.6 5.2 0.00 0.10 0.00 93 1016.3
20260903115705 75 99 1.7 2.6 0.00 0.10 0.00 93 1016.3
20260903115205 75 29 2.6 6.1 0.00 0.10 0.00 93 1016.5
20260903114704 75 58 5.2 7.8 0.00 0.10 0.00 93 1016.4
20260903114204 75 58 4.3 7.0 0.00 0.10 0.00 93 1016.3
20260903113705 75 45 5.2 7.0 0.00 0.10 0.00 93 1016.5
20260903113205 75 63 3.5 6.1 0.00 0.10 0.00 93 1016.2
20260903112705 75 64 3.5 6.1 0.00 0.10 0.00 93 1016.3
20260903111205 75 57 4.3 7.0 0.00 0.10 0.00 93 1016.0
20260903110704 75 27 3.5 5.2 0.00 0.10 0.00 93 1015.9
20260903110205 75 356 2.6 6.1 0.00 0.10 0.00 93 1015.4
20260903105705 75 88 1.7 2.6 0.00 0.10 0.00 93 1015.0
20260903103705 75 153 2.6 6.1 0.00 0.10 0.00 93 1014.7
20260903103205 75 145 3.5 6.1 0.00 0.10 0.00 93 1014.7
20260903102705 75 149 2.6 6.1 0.00 0.10 0.00 93 1014.7
20260903102205 75 153 1.7 4.3 0.00 0.10 0.00 93 1014.8
20260903101705 75 144 1.7 2.6 0.00 0.10 0.00 93 1014.9
20260903101204 75 90 1.7 2.6 0.00 0.10 0.00 93 1014.9
20260903100705 75 99 2.6 7.0 0.00 0.10 0.00 94 1015.0
20260903095205 75 102 3.5 6.1 0.00 0.10 0.00 93 1015.1
20260903094704 75 78 2.6 4.3 0.00 0.10 0.00 93 1015.2
20260903094204 75 70 2.6 4.3 0.00 0.10 0.00 93 1015.2
20260903093704 75 76 2.6 4.3 0.00 0.10 0.00 93 1015.3
20260903093205 75 86 1.7 2.6 0.00 0.10 0.00 93 1015.2
20260903092205 75 65 2.6 4.3 0.00 0.10 0.00 93 1015.1
20260903091705 75 71 3.5 4.3 0.00 0.10 0.00 93 1015.2
20260903091204 75 73 2.6 4.3 0.00 0.10 0.00 93 1015.2
20260903090705 75 73 2.6 2.6 0.00 0.10 0.00 93 1015.1
20260903085705 75 96 3.5 5.2 0.00 0.10 0.00 93 1015.0
20260903084705 75 67 3.5 5.2 0.00 0.10 0.00 93 1015.0
20260903084205 76 63 2.6 5.2 0.00 0.10 0.00 94 1015.0
20260903083704 76 88 2.6 4.3 0.00 0.10 0.00 94 1015.0
20260903083204 76 113 1.7 5.2 0.00 0.10 0.00 94 1015.0
20260903082704 76 117 2.6 5.2 0.00 0.10 0.00 94 1015.1
20260903082204 75 93 1.7 4.3 0.00 0.10 0.00 93 1015.3
20260903081704 75 106 1.7 2.6 0.00 0.10 0.00 93 1015.3
20260903081205 75 93 2.6 4.3 0.00 0.10 0.00 93 1015.3
20260903080705 75 43 2.6 4.3 0.00 0.10 0.00 93 1015.3
20260903075705 76 75 2.6 2.6 0.00 0.10 0.00 94 1015.1
20260903075204 76 122 0.9 2.6 0.00 0.10 0.00 94 1015.1
20260903074704 76 109 0.9 2.6 0.00 0.10 0.00 94 1015.1
20260903074205 75 150 1.7 2.6 0.00 0.10 0.00 94 1015.0